sat.trackr.live / text

‹ back to catalog

HULIANWANG DIGUI-13

NORAD 62973 · 2025-030C

PAYLOAD ACTIVE UNKNOWN

§ Identity

Operator
Country
PRC
Launch date
2025-02-11
Launch site
WSC
Launch vehicle
Mass (kg)
RCS (m²)

External: N2YO · Heavens-Above · Gunter

§ Orbital elements

Epoch: 2026-05-24T23:54:51.524352Z

Period
108.33 min
Inclination
50.0036°
Eccentricity
0.0001107
Mean motion
13.29326736 rev/d
Perigee alt
1,148.5 km
Apogee alt
1,150.1 km
Semi-major
7,527.4 km
B*
4.3394e-5
RAAN
318.9973°
Arg perigee
93.3674°
Mean anomaly
266.7325°
Rev number
6,277

§ Raw data

HULIANWANG DIGUI-131 62973U 25030C   26144.99642968 -.00000104  00000+0  43394-4 0  99992 62973  50.0036 318.9973 0001107  93.3674 266.7325 13.29326736 62779

JSON: /api/v1/satellites/62973 · /tle

For live sub-satellite position, see the globe view (requires WebGL).

§ Visibility from observer

Set your observer location to see the next 7 days of passes ≥ 10°. The values pass through the URL so the page stays shareable.

No JS? Fill the form by hand. The geolocation button needs JavaScript.